Regional Weather Roundup
Issued by NWS Midland/Odessa, TX

Skip options and go directly to product.
Home | Oldest Version | Previous Version | Current Version | All | Graphics & Text | Save Text | Print | Product List | Glossary On

Skip product version selection by date and time.   
081
ASUS44 KMAF 302002
RWRMAF
MIDLAND AREA WEATHER ROUNDUP
NATIONAL WEATHER SERVICE MIDLAND TX
300 PM CDT TUE SEP 30 2014

...IN SOUTHWEST TEXAS AND SOUTHEAST NEW MEXICO...

CITY           SKY/WX    TMP DP  RH WIND       PRES   REMARKS
ALPINE         SUNNY     84  55  36 SW6       30.00F
ANDREWS        FAIR      87  55  32 W8G16     29.84F
ARTESIA        NOT AVBL
BIG SPRING     SUNNY     88  58  35 S10G17    29.84F
CARLSBAD       SUNNY     85  55  35 SW7       29.83F
DRYDEN           N/A     90  59  35 S7        29.82F
FORT STOCKTON  SUNNY     89  55  31 VRB7      29.85F
GUAD PASS      MOSUNNY   78  52  40 W33G41    29.98F
HOBBS          SUNNY     82  52  34 W17G24    29.87F
MARFA          MOSUNNY   82  55  39 W10G16    30.00F
MIDLAND AIRPK  SUNNY     89  58  34 SW6       29.83F
MIDLAND INTL   SUNNY     89  59  36 SW10      29.82F
ODESSA         SUNNY     86  59  39 SW10      29.84F
PECOS          SUNNY     87  59  38 N6        29.82F
PRESIDIO       FAIR      87  59  38 CALM      29.86F
SEMINOLE       SUNNY     86  51  29 W13       29.85F
SNYDER         MOSUNNY   84  63  48 S17       29.83F
WINK           SUNNY     89  55  31 W9        29.81F
$$
...OTHER STATIONS IN TEXAS...

CITY           SKY/WX    TMP DP  RH WIND       PRES   REMARKS
ABILENE        MOSUNNY   90  59  35 S14G23    29.82F
AMARILLO       SUNNY     83  42  23 SW20G26   29.81F
AUSTIN         PTSUNNY   88  65  46 MISG      29.80F
BROWNSVILLE    MOSUNNY   87  77  72 W3        29.78F
CORPUS CHRISTI PTSUNNY   85  72  65 E13       29.79F
DALLAS FTW     PTSUNNY   90  64  42 SE10      29.79F
DEL RIO        SUNNY     88  66  48 S15       29.79F HAZE
EL PASO        MOSUNNY   84  48  28 W17       29.90F
HOUSTON INT    PTSUNNY   87  72  60 SE9       29.80F
LUBBOCK        MOSUNNY   82  63  52 SW13      29.83F
SAN ANGELO     SUNNY     91  59  33 S13       29.81F
SAN ANTONIO    MOSUNNY   91  64  40 SW10      29.82F
WACO           SUNNY     90  63  40 S10       29.80F
WICHITA FALLS  NOT AVBL
$$
...OTHER LOCATIONS IN NEW MEXICO...

CITY           SKY/WX    TMP DP  RH WIND       PRES   REMARKS
ALAMAGORDO     MOSUNNY   81  32  17 W8G18     29.92F
ALBUQUERQUE    MOSUNNY   71  31  22 NW10G17   29.97F
CANNON AFB     SUNNY     79  41  25 W17G24    29.87F
CLOVIS           N/A     79  43  27 W12       29.89F
HOLLOMAN AFB   MOSUNNY   82  30  15 SW16      29.89F
ROSWELL        SUNNY     81  44  27 SE6       29.85F
RUIDOSO        SUNNY     68  37  32 N5        30.05F
SANTA FE       SUNNY     69  28  21 W15G21    29.98F
TRUTH OR CONSE SUNNY     76  37  24 MISG      29.93F
TUCUMCARI      SUNNY     80  35  19 W18       29.81F
$$

USA.gov is the U.S. government's official web portal to all federal, state and local government web resources and services.